Satellite: MET-3/5
Catalog number: 21655
Epoch time:      09336.95248671
Element set:    0713
Inclination:      082.5522 deg
RA of node:       087.2812 deg
Eccentricity:    0.0014377
Arg of perigee:   116.6276 deg
Mean anomaly:     243.6321 deg
Mean motion:   13.17021607 rev/day
Decay rate:        5.1e-07 rev/day^2
Epoch rev:           87984
Checksum:              306

Satellite: MET-2/21
Catalog number: 22782
Epoch time:      09337.53832954
Element set:     634
Inclination:      082.5500 deg
RA of node:       047.6672 deg
Eccentricity:    0.0021230
Arg of perigee:   229.0042 deg
Mean anomaly:     130.9286 deg
Mean motion:   13.83641219 rev/day
Decay rate:       -7.2e-07 rev/day^2
Epoch rev:           82102
Checksum:              280

Satellite: OKEAN-4
Catalog number: 23317
Epoch time:      09337.75757559
Element set:      90
Inclination:      082.5382 deg
RA of node:       176.2457 deg
Eccentricity:    0.0022341
Arg of perigee:   161.7997 deg
Mean anomaly:     198.3991 deg
Mean motion:   14.82743606 rev/day
Decay rate:       1.81e-06 rev/day^2
Epoch rev:           81749
Checksum:              343

Satellite: NOAA-14
Catalog number: 23455
Epoch time:      09336.82117740
Element set:    0850
Inclination:      098.8970 deg
RA of node:       053.7921 deg
Eccentricity:    0.0010165
Arg of perigee:   075.6071 deg
Mean anomaly:     284.6211 deg
Mean motion:   14.13774206 rev/day
Decay rate:       -6.6e-07 rev/day^2
Epoch rev:           76975
Checksum:              312

Satellite: NOAA-15
Catalog number: 25338
Epoch time:      09336.73588058
Element set:    0177
Inclination:      098.5994 deg
RA of node:       322.3904 deg
Eccentricity:    0.0009776
Arg of perigee:   288.9126 deg
Mean anomaly:     071.0984 deg
Mean motion:   14.24794714 rev/day
Decay rate:      -1.01e-06 rev/day^2
Epoch rev:           60077
Checksum:              344

Satellite: RESURS
Catalog number: 25394
Epoch time:      09336.63313940
Element set:    0373
Inclination:      098.3213 deg
RA of node:       000.2713 deg
Eccentricity:    0.0002398
Arg of perigee:   077.7961 deg
Mean anomaly:     282.3483 deg
Mean motion:   14.24190951 rev/day
Decay rate:       -2.5e-07 rev/day^2
Epoch rev:           59237
Checksum:              294

Satellite: FENGYUN1
Catalog number: 25730
Epoch time:      09337.83899952
Element set:     915
Inclination:      098.7708 deg
RA of node:       303.0547 deg
Eccentricity:    0.0022968
Arg of perigee:   091.2553 deg
Mean anomaly:     269.1258 deg
Mean motion:   14.08107342 rev/day
Decay rate:       9.70e-06 rev/day^2
Epoch rev:           54419
Checksum:              332

Satellite: OKEAN-0
Catalog number: 25860
Epoch time:      09336.84212217
Element set:     852
Inclination:      097.8068 deg
RA of node:       311.5174 deg
Eccentricity:    0.0001457
Arg of perigee:   045.7279 deg
Mean anomaly:     314.4044 deg
Mean motion:   14.73600696 rev/day
Decay rate:        4.5e-07 rev/day^2
Epoch rev:           55798
Checksum:              311

Satellite: NOAA-16
Catalog number: 26536
Epoch time:      09336.66469489
Element set:    0657
Inclination:      099.1771 deg
RA of node:       344.4319 deg
Eccentricity:    0.0010889
Arg of perigee:   164.9460 deg
Mean anomaly:     195.2035 deg
Mean motion:   14.12539238 rev/day
Decay rate:        3.1e-07 rev/day^2
Epoch rev:           47408
Checksum:              339

Satellite: NOAA-17
Catalog number: 27453
Epoch time:      09336.83601694
Element set:    0652
Inclination:      098.4630 deg
RA of node:       029.9018 deg
Eccentricity:    0.0011546
Arg of perigee:   356.6924 deg
Mean anomaly:     003.4168 deg
Mean motion:   14.24111347 rev/day
Decay rate:       1.00e-06 rev/day^2
Epoch rev:           38675
Checksum:              301

Satellite: NOAA-18
Catalog number: 28654
Epoch time:      09336.85236768
Element set:    0137
Inclination:      098.9268 deg
RA of node:       278.9261 deg
Eccentricity:    0.0013516
Arg of perigee:   246.4844 deg
Mean anomaly:     113.4923 deg
Mean motion:   14.11305827 rev/day
Decay rate:      -1.20e-06 rev/day^2
Epoch rev:           23374
Checksum:              324

Satellite: NOAA-19
Catalog number: 33591
Epoch time:      09336.86874953
Element set:    0344
Inclination:      098.7665 deg
RA of node:       278.3890 deg
Eccentricity:    0.0014795
Arg of perigee:   123.1057 deg
Mean anomaly:     237.1531 deg
Mean motion:   14.11004987 rev/day
Decay rate:      -1.92e-06 rev/day^2
Epoch rev:           04222
Checksum:              326

/EX
SB KEPS @ AMSAT  $ORB09337.M
Orbital Elements  09337.MISC

HR AMSAT ORBITAL ELEMENTS FOR MANNED AND MISCELLANEOUS SATELLITES
FROM WA5QGD FORT WORTH,TX December 3, 2009
Send Subscribe/unsubscribe to KEPS at http://www.amsat.org/mailman/listinfo/kep
BID: ORB09337.M
TO ALL RADIO AMATEURS BT

Satellite: HUBBLE
Catalog number: 20580
Epoch time:      09335.75695345
Element set:     483
Inclination:      028.4687 deg
RA of node:       088.6049 deg
Eccentricity:    0.0003454
Arg of perigee:   259.9800 deg
Mean anomaly:     100.0422 deg
Mean motion:   15.00861827 rev/day
Decay rate:       4.15e-06 rev/day^2
Epoch rev:           87505
Checksum:              304

